Tracking 26321 objects as of 28-Nov-2022
HD Live streaming from Space Station
objects crossing your sky now

NOAA 16 DEB

Track NOAA 16 DEB now!
10-day predictions


NORAD ID: 41366
Int'l Code: 2000-055JK
Perigee: 840.9 km
Apogee: 898.6 km
Inclination: 99.0 °
Period: 102.2 minutes
Semi major axis: 7240 km
RCS: Unknown
Launch date: September 21, 2000
Source: United States (US)
Launch site: AIR FORCE WESTERN TEST RANGE (AFWTR)

Note: This is SATELLITE DEBRIS
aabbcc
Your satellite tracking list
Your tracking list is empty




NASA's NSSDC Master Catalog

Two Line Element Set (TLE):
1 41366U 00055JK  22331.50454469  .00003096  00000-0  17979-2 0  9991
2 41366  98.9601  47.1152 0039811  18.2681 341.9908 14.09047171349300
Source of the keplerian elements: AFSPC